Change the Weather History Date:

Sunday, September 22, 2013

  Actual Average Record
Temperature  
Mean Temperature 64 °F 54 °F  
Max Temperature 85 °F 68 °F 95 °F (1938)
Min Temperature 42 °F 40 °F 19 °F (1995)
Degree Days  
Heating Degree Days 1 11  
Month to date heating degree days 58 162  
Since 1 July heating degree days 98 248  
Cooling Degree Days 0 0  
Month to date cooling degree days 74 30  
Year to date cooling degree days 386 416  
Growing Degree Days 14 (Base 50)    
Moisture  
Dew Point 49 °F    
Average Humidity 60    
Maximum Humidity 93    
Minimum Humidity 27    
Precipitation  
Precipitation T in 0.05 in 0.97 in (2006)
Month to date precipitation 2.76 1.08  
Year to date precipitation 15.93 13.37  
Sea Level Pressure  
Sea Level Pressure 29.47 in    
Wind  
Wind Speed 6 mph (East)    
Max Wind Speed 20 mph    
Max Gust Speed 26 mph    
Visibility 10 miles    
Events Rain , Thunderstorm    
T = Trace of Precipitation, MM = Missing Value Source: NWS Daily Summary

Daily Weather History Graph

Daily Weather History Graph

Search for Another Location

Airport or City:

Trip Planner

Search our weather history database for the weather conditions in past years. The results will help you decide how hot, cold, wet, or windy it might be!

Date:

Astronomy

Sep. 22, 2013 Rise Set
Actual Time 6:38 AM MDT 6:48 PM MDT
Civil Twilight 6:08 AM MDT 7:18 PM MDT
Nautical Twilight 5:32 AM MDT 7:54 PM MDT
Astronomical Twilight 4:55 AM MDT 8:30 PM MDT
Moon 8:24 PM MDT (9/22) 10:15 AM MDT (9/22)
Length of Visible Light 13h 10m
Length of Day
12h 09m
Waning Gibbous, 88% of the Moon is Illuminated
Sep 22
Waning Gibbous
Sep 26
Last Quarter
Oct 4
New
Oct 11
First Quarter
Oct 18
Full

Hourly Weather History & Observations

Time (MDT) Temp. Windchill Dew Point Humidity Pressure Visibility Wind Dir Wind Speed Gust Speed Precip Events Conditions
12:56 AM 52.0 °F - 43.0 °F 71% 29.58 in 10.0 mi SE 11.5 mph - N/A   Clear
1:56 AM 51.1 °F - 43.0 °F 74% 29.57 in 10.0 mi SSE 9.2 mph - N/A   Clear
2:56 AM 48.0 °F - 42.1 °F 80% 29.55 in 10.0 mi SE 10.4 mph - N/A   Clear
3:56 AM 45.0 °F 43.5 °F 41.0 °F 86% 29.55 in 10.0 mi East 3.5 mph - N/A   Clear
4:56 AM 43.0 °F 39.5 °F 39.0 °F 86% 29.53 in 10.0 mi East 5.8 mph - N/A   Clear
5:56 AM 44.1 °F 40.8 °F 39.9 °F 85% 29.53 in 10.0 mi East 5.8 mph - N/A   Clear
6:56 AM 44.1 °F 40.8 °F 41.0 °F 89% 29.55 in 10.0 mi ESE 5.8 mph - N/A   Clear
7:56 AM 48.9 °F - 46.0 °F 90% 29.53 in 10.0 mi ESE 4.6 mph - N/A   Clear
8:56 AM 55.9 °F - 48.9 °F 77% 29.52 in 10.0 mi SSE 6.9 mph - N/A   Clear
9:56 AM 64.9 °F - 51.1 °F 61% 29.49 in 10.0 mi South 6.9 mph - N/A   Clear
10:56 AM 70.0 °F - 51.1 °F 51% 29.47 in 10.0 mi South 6.9 mph - N/A   Clear
11:56 AM 78.1 °F - 50.0 °F 37% 29.44 in 10.0 mi South 8.1 mph - N/A   Clear
12:56 PM 81.0 °F - 45.0 °F 28% 29.44 in 10.0 mi SW 8.1 mph - N/A   Clear
1:56 PM 82.0 °F - 46.0 °F 28% 29.43 in 10.0 mi Variable 4.6 mph - N/A   Clear
2:56 PM 84.0 °F - 46.9 °F 27% 29.42 in 10.0 mi Calm Calm - N/A   Clear
3:56 PM 84.0 °F - 46.0 °F 26% 29.42 in 10.0 mi Calm Calm - N/A   Clear
4:56 PM 82.9 °F - 53.1 °F 36% 29.42 in 10.0 mi North 3.5 mph - N/A   Clear
5:56 PM 75.9 °F - 53.1 °F 45% 29.42 in 10.0 mi NNW 5.8 mph - N/A   Clear
6:56 PM 72.0 °F - 52.0 °F 49% 29.42 in 10.0 mi North 4.6 mph - N/A   Clear
7:56 PM 64.9 °F - 55.0 °F 70% 29.44 in 10.0 mi NW 10.4 mph - N/A   Clear
8:56 PM 63.0 °F - 55.0 °F 75% 29.43 in 10.0 mi NW 8.1 mph - N/A   Clear
9:56 PM 62.1 °F - 54.0 °F 75% 29.42 in 10.0 mi NW 8.1 mph - N/A   Partly Cloudy
10:26 PM 62.6 °F - 53.6 °F 72% 29.47 in 10.0 mi NNW 4.6 mph - 0.00 in Rain , Thunderstorm Light Thunderstorms and Rain
10:56 PM 62.1 °F - 55.9 °F 80% 29.46 in 10.0 mi WNW 10.4 mph - 0.00 in Thunderstorm Thunderstorm
11:25 PM 60.8 °F - 55.4 °F 82% 29.45 in 10.0 mi NNW 9.2 mph - N/A   Partly Cloudy
11:56 PM 62.1 °F - 55.0 °F 78% 29.39 in 10.0 mi NE 5.8 mph - N/A   Clear